Location: A�n Tadlesse
(35.0351°N, 0.5353°E)
Time: 13:35:01
(UTC+00:00)

Delta 2 Rocket - Pass Details

Date: 21 October 2019
Orbit: 415 x 810 km, 35.6° (Epoch: 20 November)

Event Time Altitude Azimuth Distance (km) Brightness Sun altitude
Rises 19:00:48 0° 270° (W) 2,457 8.2 -22.2°
Reaches altitude 10° 19:03:01 10° 271° (W) 1,544 6.7 -22.6°
Enters shadow 19:05:43 50° 283° (WNW) 546 3.6 -23.2°
